Flag for Germany Weather past 2 weeks in Koblenz, Rhineland-Palatinate, Germany

Now
54 °F

Partly sunny.


Feels Like: 50 °F
Forecast: 54 / 77 °F
Wind: 12 mph from East

Location: Buechel

Current Time: Sep 3, 2014 at 9:57:06 AM

Latest Report: Sep 3, 2014 at 9:20 AM


Visibility: N/A

Pressure: 30.18 "Hg

Humidity: 88%

Dew point: 50 °F

Location of KoblenzLocation

Historic Weather in Koblenz — Graph

°F

Koblenz temperature yesterday

Maximum temperature yesterday: 64 °F (at 2:20 PM)
Minimum temperature yesterday: 50 °F (at 7:20 AM)
Average temperature yesterday: 58 °F

Past Weeks' High & Low Weather Summary

 TemperatureHumidityPressure
High68 °F (Aug 29, 2:20 PM)100% (Aug 19, 8:46 AM)30.21 "Hg (Aug 19, 8:46 AM)
Low41 °F (Aug 24, 7:20 AM)51% (Aug 20, 3:20 PM)29.62 "Hg (Aug 26, 5:20 AM)
Average55 °F82%30.01 "Hg
* Reported Aug 19 8:20 AM — Sep 3 8:52 AM, Koblenz, Weather by CustomWeather, © 2014

Note: Actual official high and low records may vary slightly from our data, if they occured in-between our weather recording intervals... More about our weather records

Advertising

Koblenz weather history for previous 24 hours

 ConditionsComfort  
Time TempWeatherWind HumidityBarometerVisibility
8:52 AM
Sep 3
54 °FBroken clouds.10 mph88%30.18 "Hg4 mi
8:20 AM52 °FFog.9 mph94%30.18 "Hg3 mi
7:20 AM52 °FFog.8 mph94%30.18 "Hg3 mi
6:20 AM54 °FPartly cloudy.10 mph94%30.18 "Hg6 mi
5:20 AM55 °FPartly cloudy.10 mph88%30.18 "Hg6 mi
4:20 AM55 °FPassing clouds.7 mph94%30.18 "Hg6 mi
3:20 AM57 °FCool.9 mph88%30.18 "Hg5 mi
2:20 AM57 °FCool.9 mph88%30.21 "Hg6 mi
1:20 AM57 °FCool.9 mph88%30.21 "Hg6 mi
12:20 AM55 °FCool.7 mph88%30.21 "HgN/A
11:20 PM
Sep 2
57 °FCool.8 mph88%30.21 "Hg6 mi
10:20 PM59 °FCool.6 mph82%30.21 "HgN/A
9:20 PM59 °FCool.7 mph82%30.21 "HgN/A
8:20 PM61 °FCool.6 mph77%30.18 "HgN/A
7:20 PM61 °FCool.8 mph72%30.18 "HgN/A
6:20 PM63 °FMild.12 mph68%30.18 "HgN/A
5:20 PM64 °FPartly sunny.10 mph60%30.18 "HgN/A
4:20 PM64 °FScattered clouds.9 mph56%30.18 "HgN/A
3:20 PM64 °FScattered clouds.8 mph56%30.18 "HgN/A
2:20 PM64 °FScattered clouds.8 mph52%30.18 "HgN/A
1:20 PM63 °FScattered clouds.7 mph56%30.18 "HgN/A
12:20 PM61 °FScattered clouds.7 mph68%30.18 "HgN/A
11:20 AM61 °FScattered clouds.6 mph68%30.18 "HgN/A
10:20 AM61 °FScattered clouds.6 mph68%30.18 "HgN/A
9:20 AM57 °FPassing clouds.3 mph82%30.18 "HgN/A
Weather by CustomWeather, © 2014

See weather overviewHow to use our weather pages